TITAN 3C TRANSTAGE DEB, 26777

Orbit data source: Space-Track

TITAN 3C TRANSTAGE DEB, 26777 is space debris in HEO originally from a launch on Tue, 21 Dec 1965 UTC launched from the Air Force Eastern Test Range (AFETR). Debris objects in space refer to the collection of defunct objects orbiting the Earth. Examples of debris include non-operational satellites, rocket bodies, and fragments generated from explosions, collisions, or faulty payload assembly.

Loading next visibility...
Identifier
26777, 1965-108AV
Orbit
HEO
Country
Flag of USUS
Related business
Manufacturer
Unknown
Mission
Spacecraft
Bus & Motor
Unknown
Mass
Unknown
Launch date (UTC)
1965-12-21 (60 years ago)
Launch vehicle
Unknown
Launch site
Air Force Eastern Test Range (AFETR)
Object type
Payload
Rocket body
Debris
Shape & HBR
Unknown shape, 0.2 m
Radar Cross Section
Medium (>0.1 m² and <1 m²)

Expand to show TLE details & history
Last TLE update: 2 days ago

TLE from 2 days ago
0 TITAN 3C TRANSTAGE DEB
1 26777U 65108AV  25294.72664378 -.00000181  00000-0  00000-0 0  9995
2 26777  27.2103 278.9855 6689951 298.0053 234.7592  2.56662427 39915
Epoch: 2025-10-21T17:26Z
TLE epoch observation values (Epoch: 2025-10-21T17:26:22.022Z)
Latitude
19.44947°
Longitude
123.61041°
Altitude
28,719.363 km
Speed
2.242 km/s
True Right ascension
03h 42m 27s
True Declination
19° 25' 39"
Sunlit
Object was in daylight at epoch
Visualization orbit readout
Latitude
Unknown
Longitude
Unknown
Altitude
Unknown
Speed
Unknown
Apparent Right ascension
Unknown
Apparent Declination
Unknown
Sunlit
N/A
Visualization observer readout
Local Sidereal Time
10:26:56
Azimuth
Unknown
Elevation
Unknown
Doppler factor
Unknown
Orbital elements
Apogee altitude
31,235.495 km
Perigee altitude
1,081.619 km
Semi-major axis
22,536.694 km
Eccentricity
0.669
Inclination
27.2103°
RAAN
278.9855°
Arg. of periapsis
298.0053°
True anomaly
195.29948°
Mean anomaly
234.7592°
Eccentric anomaly
213.56621°
Mean motion
0.64152 °/min
Orbital period
561.17 mins
BSTAR
0
Loading maneuver chart data...
Computing Atmospheric mass density...

Documentation

Showing up to 5 results
|